Powrót do katalogu

STARLINK-38157

AktywnyŁącznośćSSO
NORAD 100263·PAYLOAD·🇺🇸 United States

Wystrzelony Aug 8, 2026 z Vandenberg Space Force Base

Loading…

Następne Przeloty (najbliższe 24 godziny)

TLE

ŚwieżeSource: Space-Track

Epoka: Sep 14, 2026, 15:32 UTC

1 A0263U 26181T   26257.64745333  .00155614  00000-0  10251-2 0  9999
2 A0263  97.2822 301.0252 0002155  72.1768 287.9733 15.75192794  7040

Śledź STARLINK-38157 w czasie rzeczywistym z AllMySat

Download on the App Store